Location: *
(40.7873°S, 98.7174°E)
Time: 12:16:14
(UTC+00:00)

Cosmos 192 - Pass Details

Date: 28 September 2022
Orbit: 701 x 711 km, 74.0° (Epoch: 25 November)

Event Time Altitude Azimuth Distance (km) Brightness Sun altitude
Rises 19:42:26 0° 187° (S) 3,136 8.1 -35.5°
Reaches altitude 10° 19:45:21 10° 170° (S) 2,211 7.4 -35.1°
Maximum altitude 19:49:05 21° 121° (ESE) 1,593 6.7 -34.6°
Drops below altitude 10° 19:52:48 10° 73° (ENE) 2,196 7.2 -34.0°
Sets 19:55:40 0° 56° (NE) 3,109 7.8 -33.6°
